Location: SE Lincoln, NE
(40.7805°N, 96.6275°W)
Time: 07:11:32
(UTC-05:00)

Cosmos 2278 Rocket - Pass Details

Date: 15 May 2021
Orbit: 841 x 845 km, 71.0° (Epoch: 20 June)

Event Time Altitude Azimuth Distance (km) Brightness Sun altitude
Rises 22:48:40 0° 234° (SW) 3,386 5.4 -20.2°
Reaches altitude 10° 22:51:27 10° 246° (WSW) 2,455 4.8 -20.5°
Maximum altitude 22:56:14 28° 304° (NW) 1,531 4.2 -21.1°
Drops below altitude 10° 23:01:03 10° 3° (N) 2,467 5.3 -21.6°
Sets 23:03:52 0° 15° (NNE) 3,405 5.9 -21.9°
